User: anonymous   Login
Location: Unspecified
(0.0000°N, 0.0000°E)
Time: 18:50:33
(UTC+00:00)
Language:

SR - Orbit

View from above orbital plane
View from above orbital plane
View from above satellite
View from above satellite

Ground track
Ground track

The orbit data is extracted from the following two-line orbital elements,

1 00046U 60007B   15185.54263884  .00000181  00000-0  59990-4 0  9999
2 00046 066.6907 255.0947 0207205 038.2008 323.3576 14.48551132876874
Epoch (UTC): 04 July 2015 13:01:23
Eccentricity: 0.0207205
inclination: 66.6907°
perigee height: 583 km
apogee height: 877 km
right ascension of ascending node: 255.0947°
argument of perigee: 38.2008°
revolutions per day: 14.48551132
mean anomaly at epoch: 323.3576°
orbit number at epoch: 87687

The dashed part of the orbit path shows where the satellite is in the earth's shadow,  

DLR